User: anonymous   Login
Location: Oshawa
(43.9000°N, 78.8670°W)
Time: 08:04:43
(UTC-04:00)
Language:

PAYLOAD A - Orbit

View from above orbital plane
View from above orbital plane
View from above satellite
View from above satellite

Ground track
Ground track

The orbit data is extracted from the following two-line orbital elements,

1 27840U 03031A   16270.54225844 -.00000003  00000-0  12552-4 0  9991
2 27840  98.1985 273.5631 0097974 193.1640 166.6989 14.38864133695400
Epoch (UTC): 26 September 2016 13:00:51
Eccentricity: 0.0097974
inclination: 98.1985°
perigee height: 692 km
apogee height: 832 km
right ascension of ascending node: 273.5631°
argument of perigee: 193.1640°
revolutions per day: 14.38864133
mean anomaly at epoch: 166.6989°
orbit number at epoch: 69540

The dashed part of the orbit path shows where the satellite is in the earth's shadow,  

DLR